RH
99 99 100 96 99 98 98 96 92 98 100 88 73 75 68 53 39 28 20 17 17 16 14 12 10 9 8
98 96 96 99 97 100 99 98 96 95 85 78 75 55 36 26 21 20 19 15 11 9 8 6 4 3 4
98 96 90 95 94 97 96 97 94 95 90 66 42 28 24 23 20 14 10 7 5 4 4 6 8 10 11
98 100 88 99 100 99 96 97 92 63 42 32 29 26 20 12 9 6 4 4 6 13 19 19 17 15 14
100 100 100 98 85 84 76 55 40 31 29 29 24 15 12 10 5 4 7 16 18 23 26 22 17 12 9
100 97 96 82 62 45 35 28 25 26 18 15 12 9 5 9 15 24 24 27 27 29 28 24 16 12 11
93 76 51 38 32 24 16 12 12 11 8 7 4 8 18 30 35 32 31 38 46 40 34 26 17 20 22
40 32 26 17 11 10 8 6 4 3 3 4 14 22 34 42 41 44 45 55 63 59 41 30 20 26 34
23 14 11 8 7 6 4 3 3 8 13 14 33 29 42 60 64 60 66 69 68 68 50 49 26 24 41
11 8 6 5 4 3 3 6 16 18 22 27 40 42 46 93 91 78 76 73 72 64 53 52 60 55 31
6 5 4 4 4 9 16 17 27 34 26 24 45 51 59 64 95 79 72 73 73 62 58 54 46 67 52
4 5 9 14 16 16 23 40 35 29 30 34 47 54 60 78 88 85 81 74 76 77 72 73 69 68 74
12 14 15 16 21 41 45 47 41 32 30 39 49 58 70 78 79 84 73 98 84 95 100 97 99 93 84
15 23 27 35 44 48 49 49 51 43 37 46 59 69 83 80 71 83 84 81 90 87 92 86 81 82 97
23 25 36 44 50 52 54 54 50 54 74 74 75 90 92 74 68 69 74 83 82 83 85 95 81 75 76
22 25 32 43 63 67 65 57 60 73 70 72 84 100 97 93 85 94 99 97 92 83 83 98 100 90 79
23 27 46 63 74 81 76 70 75 72 66 65 79 91 99 100 95 78 90 90 95 94 88 89 97 100 100
Wind_Speed
56 53 50 56 59 65 64 62 62 65 69 70 71 70 70 70 71 71 70 72 75 78 81 85 88 91 94
51 55 64 57 60 60 63 63 66 71 73 72 70 70 70 70 71 74 77 80 83 87 91 96 99 100 100
59 57 59 61 62 60 62 70 69 69 70 71 71 73 74 75 78 81 84 88 93 92 88 82 78 76 77
59 59 56 58 62 68 67 67 67 69 70 71 74 78 80 81 86 90 90 84 74 64 62 65 70 74 77
53 57 62 68 67 67 67 67 68 72 73 76 81 85 88 90 87 81 69 58 57 58 57 63 70 71 72
59 63 63 64 65 65 67 69 72 78 80 83 89 88 78 65 60 53 52 54 53 53 50 56 61 63 64
57 60 61 63 65 68 72 75 79 86 89 89 79 57 51 49 51 53 53 54 54 49 45 51 53 52 50
57 59 62 66 71 75 79 84 89 87 78 61 44 41 42 48 50 53 56 53 51 46 41 42 45 44 41
61 64 69 74 77 82 86 82 68 47 41 34 35 34 39 44 47 53 55 52 47 44 40 37 38 38 35
67 72 76 81 82 74 60 38 32 34 34 26 32 36 33 39 44 48 48 46 42 42 39 34 31 33 31
75 78 76 66 51 34 31 33 32 29 29 27 31 34 35 38 39 44 41 40 38 40 38 36 33 30 28
69 57 44 34 32 34 33 29 30 28 29 30 32 34 36 38 36 37 36 38 36 33 36 40 38 34 27
37 34 36 38 34 29 30 30 30 29 31 33 33 35 39 41 37 35 31 34 33 33 32 33 35 36 32
38 37 34 29 29 30 31 31 31 31 35 33 35 37 39 42 40 34 32 30 33 32 31 35 33 30 29
34 32 29 29 30 32 30 29 28 28 30 33 35 36 38 40 39 37 35 35 31 26 24 27 30 27 22
33 31 29 29 31 30 28 27 27 29 31 32 33 34 37 40 42 35 35 33 30 28 25 21 25 29 23
32 31 28 28 28 27 27 27 29 31 33 34 34 34 33 33 40 41 32 30 24 25 25 24 22 25 21
Wind_Direction
281 277 284 290 285 284 288 290 288 287 286 289 291 291 291 291 290 289 287 286 284 284 283 282 280 278 276
277 279 288 289 292 287 289 288 287 288 292 293 294 293 291 290 290 289 288 288 287 285 284 283 283 280 275
285 292 292 290 289 288 286 289 294 295 295 295 293 292 292 293 292 291 290 290 290 289 285 284 282 280 278
285 295 291 287 287 290 295 296 296 295 294 293 292 292 293 292 291 293 295 292 290 291 289 288 286 283 278
288 287 286 291 294 297 298 297 296 293 293 295 293 294 295 297 296 295 294 294 294 295 294 293 294 290 285
284 290 294 296 299 298 296 294 295 295 295 295 295 297 297 293 292 294 297 297 299 300 295 300 297 296 298
295 297 299 298 295 296 297 297 297 296 295 296 298 297 294 292 294 298 299 299 299 302 300 305 301 303 308
299 297 297 299 299 299 299 299 299 298 298 299 295 293 293 296 300 302 304 303 304 303 303 308 306 307 314
300 302 301 300 300 299 299 298 298 298 298 300 291 294 300 300 304 306 307 309 309 305 310 314 315 311 309
303 302 301 300 300 299 300 301 301 298 298 298 297 301 301 301 304 304 305 308 307 304 311 308 311 315 305
304 302 302 302 304 307 309 308 305 303 301 302 304 305 307 309 308 305 309 306 305 307 310 311 309 316 307
306 306 310 312 314 312 310 310 307 304 304 308 311 312 313 313 314 309 312 309 310 306 308 308 312 315 313
314 314 312 312 313 313 313 312 311 312 310 316 316 318 320 320 318 314 312 311 310 310 308 304 307 311 311
318 318 314 313 315 316 312 313 312 312 313 318 321 322 322 322 318 320 318 313 312 307 303 303 308 313 309
324 322 318 317 319 319 316 313 313 314 314 319 321 324 326 324 319 325 325 325 325 322 315 308 311 320 324
330 328 323 322 323 321 319 318 316 315 318 322 324 329 331 327 323 326 327 329 327 326 319 302 295 304 312
331 334 330 328 328 326 324 323 323 323 320 322 329 331 333 333 325 324 328 323 325 319 319 305 289 294 297